| time (UTC) | temp F | wind direction | speed knots | gust knots | rain 1hr in | rain 24hr in | rain mn in | humidity % | barometer mb |
| 20260506133904 | 81 | 0.0 | 0.0 | 0.00 | 0.00 | 0.00 | 32 | 1012.1 | |
| 20260506132904 | 81 | 0.0 | 0.0 | 0.00 | 0.00 | 0.00 | 32 | 1012.1 | |
| 20260506131905 | 82 | 0.0 | 0.0 | 0.00 | 0.00 | 0.00 | 32 | 1012.1 | |
| 20260506130904 | 81 | 0.0 | 0.0 | 0.00 | 0.00 | 0.00 | 33 | 1012.0 | |
| 20260506125904 | 81 | 0.0 | 0.0 | 0.00 | 0.00 | 0.00 | 31 | 1011.9 | |
| 20260506124904 | 81 | 0.0 | 0.0 | 0.00 | 0.00 | 0.00 | 31 | 1012.1 | |
| 20260506123904 | 81 | 0.0 | 0.0 | 0.00 | 0.00 | 0.00 | 31 | 1012.0 | |
| 20260506122905 | 81 | 0.0 | 0.0 | 0.00 | 0.00 | 0.00 | 31 | 1012.1 | |
| 20260506121904 | 81 | 0.0 | 0.0 | 0.00 | 0.00 | 0.00 | 31 | 1012.1 | |
| 20260506120905 | 81 | 0.0 | 0.0 | 0.00 | 0.00 | 0.00 | 31 | 1012.1 | |
| 20260506115904 | 81 | 0.0 | 0.0 | 0.00 | 0.00 | 0.00 | 30 | 1011.9 | |
| 20260506114905 | 81 | 0.0 | 0.0 | 0.00 | 0.00 | 0.00 | 30 | 1012.0 | |
| 20260506113904 | 81 | 0.0 | 0.0 | 0.00 | 0.00 | 0.00 | 30 | 1011.9 | |
| 20260506112904 | 80 | 0.0 | 0.0 | 0.00 | 0.00 | 0.00 | 31 | 1012.0 | |
| 20260506111905 | 80 | 0.0 | 0.0 | 0.00 | 0.00 | 0.00 | 30 | 1012.0 | |
| 20260506110904 | 80 | 0.0 | 0.0 | 0.00 | 0.00 | 0.00 | 30 | 1011.9 | |
| 20260506105904 | 80 | 0.0 | 0.0 | 0.00 | 0.00 | 0.00 | 30 | 1011.9 | |
| 20260506104904 | 80 | 0.0 | 0.0 | 0.00 | 0.00 | 0.00 | 30 | 1011.9 | |
| 20260506103904 | 80 | 0.0 | 0.0 | 0.00 | 0.00 | 0.00 | 30 | 1012.0 | |
| 20260506102904 | 80 | 0.0 | 0.0 | 0.00 | 0.00 | 0.00 | 31 | 1012.0 | |
| 20260506101904 | 80 | 0.0 | 0.0 | 0.00 | 0.00 | 0.00 | 30 | 1011.9 | |
| 20260506100905 | 80 | 0.0 | 0.0 | 0.00 | 0.00 | 0.00 | 32 | 1012.0 | |
| 20260506095905 | 80 | 0.0 | 0.0 | 0.00 | 0.00 | 0.00 | 29 | 1012.1 | |
| 20260506094905 | 79 | 0.0 | 0.0 | 0.00 | 0.00 | 0.00 | 31 | 1012.3 | |
| 20260506093905 | 79 | 0.0 | 0.0 | 0.00 | 0.00 | 0.00 | 31 | 1012.2 | |
| 20260506092905 | 79 | 0.0 | 0.0 | 0.00 | 0.00 | 0.00 | 31 | 1012.2 | |
| 20260506091904 | 79 | 0.0 | 0.0 | 0.00 | 0.00 | 0.00 | 31 | 1012.2 | |
| 20260506090910 | 79 | 0.0 | 0.0 | 0.00 | 0.00 | 0.00 | 32 | 1012.1 | |
| 20260506085904 | 80 | 0.0 | 0.0 | 0.00 | 0.00 | 0.00 | 30 | 1012.1 | |
| 20260506084905 | 80 | 0.0 | 0.0 | 0.00 | 0.00 | 0.00 | 29 | 1011.9 | |
| 20260506083904 | 78 | 0.0 | 0.0 | 0.00 | 0.00 | 0.00 | 33 | 1012.1 | |
| 20260506082905 | 79 | 0.0 | 0.0 | 0.00 | 0.00 | 0.00 | 30 | 1012.0 | |
| 20260506081904 | 80 | 0.0 | 0.0 | 0.00 | 0.00 | 0.00 | 31 | 1012.2 | |
| 20260506080904 | 80 | 0.0 | 0.0 | 0.00 | 0.00 | 0.00 | 30 | 1012.3 | |
| 20260506072905 | 81 | 0.0 | 0.0 | 0.00 | 0.00 | 0.00 | 28 | 1012.4 | |
| 20260506071904 | 81 | 0.0 | 0.0 | 0.00 | 0.00 | 0.00 | 29 | 1012.4 | |
| 20260506070905 | 81 | 0.0 | 0.0 | 0.00 | 0.00 | 0.00 | 28 | 1012.4 | |
| 20260506061904 | 80 | 0.0 | 0.0 | 0.00 | 0.00 | 0.00 | 28 | 1012.6 | |
| 20260506060905 | 80 | 0.0 | 0.0 | 0.00 | 0.00 | 0.00 | 28 | 1012.6 | |
| 20260506050904 | 80 | 0.0 | 0.0 | 0.00 | 0.00 | 0.00 | 29 | 1012.9 | |
| 20260506044905 | 79 | 0.0 | 0.0 | 0.00 | 0.00 | 0.00 | 30 | 1013.1 | |
| 20260506043904 | 79 | 0.0 | 0.0 | 0.00 | 0.00 | 0.00 | 30 | 1013.1 | |
| 20260506042904 | 79 | 0.0 | 0.0 | 0.00 | 0.00 | 0.00 | 29 | 1013.2 | |
| 20260506041904 | 79 | 0.0 | 0.0 | 0.00 | 0.00 | 0.00 | 31 | 1013.1 | |
| 20260506040904 | 79 | 0.0 | 0.0 | 0.00 | 0.00 | 0.00 | 30 | 1013.1 | |
| 20260506035904 | 79 | 0.0 | 0.0 | 0.00 | 0.00 | 0.00 | 30 | 1013.1 | |
| 20260506034904 | 79 | 0.0 | 0.0 | 0.00 | 0.00 | 0.00 | 30 | 1013.1 | |
| 20260506033904 | 79 | 0.0 | 0.0 | 0.00 | 0.00 | 0.00 | 30 | 1013.1 | |
| 20260506032904 | 79 | 0.0 | 0.0 | 0.00 | 0.00 | 0.00 | 30 | 1013.0 | |
| 20260506031905 | 79 | 0.0 | 0.0 | 0.00 | 0.00 | 0.00 | 30 | 1013.0 | |
| 20260506030904 | 79 | 0.0 | 0.0 | 0.00 | 0.00 | 0.00 | 31 | 1013.0 | |
| 20260506025905 | 79 | 0.0 | 0.0 | 0.00 | 0.00 | 0.00 | 30 | 1013.1 | |
| 20260506024909 | 79 | 0.0 | 0.0 | 0.00 | 0.00 | 0.00 | 29 | 1013.2 | |
| 20260506023904 | 79 | 0.0 | 0.0 | 0.00 | 0.00 | 0.00 | 29 | 1013.2 | |
| 20260506022905 | 79 | 0.0 | 0.0 | 0.00 | 0.00 | 0.00 | 30 | 1013.2 | |
| 20260506021904 | 79 | 0.0 | 0.0 | 0.00 | 0.00 | 0.00 | 29 | 1013.2 | |
| 20260506020904 | 79 | 0.0 | 0.0 | 0.00 | 0.00 | 0.00 | 28 | 1013.3 | |
| 20260506015904 | 79 | 0.0 | 0.0 | 0.00 | 0.00 | 0.00 | 29 | 1013.3 | |
| 20260506014904 | 79 | 0.0 | 0.0 | 0.00 | 0.00 | 0.00 | 29 | 1013.4 | |
| 20260506013904 | 80 | 0.0 | 0.0 | 0.00 | 0.00 | 0.00 | 29 | 1013.4 | |
| 20260506012904 | 80 | 0.0 | 0.0 | 0.00 | 0.00 | 0.00 | 29 | 1013.3 | |
| 20260506011904 | 80 | 0.0 | 0.0 | 0.00 | 0.00 | 0.00 | 29 | 1013.2 | |
| 20260506010904 | 80 | 0.0 | 0.0 | 0.00 | 0.00 | 0.00 | 28 | 1013.3 | |
| 20260506005905 | 80 | 0.0 | 0.0 | 0.00 | 0.00 | 0.00 | 28 | 1013.3 | |
| 20260506004904 | 80 | 0.0 | 0.0 | 0.00 | 0.00 | 0.00 | 28 | 1013.2 | |
| 20260506003904 | 80 | 0.0 | 0.0 | 0.00 | 0.00 | 0.00 | 29 | 1013.2 | |
| 20260506002904 | 80 | 0.0 | 0.0 | 0.00 | 0.00 | 0.00 | 28 | 1013.3 | |
| 20260506001904 | 80 | 0.0 | 0.0 | 0.00 | 0.00 | 0.00 | 28 | 1013.2 | |
| 20260506000904 | 80 | 0.0 | 0.0 | 0.00 | 0.00 | 0.00 | 28 | 1013.2 | |
| 20260505235904 | 80 | 0.0 | 0.0 | 0.00 | 0.00 | 0.00 | 28 | 1013.3 | |
| 20260505234904 | 81 | 0.0 | 0.0 | 0.00 | 0.00 | 0.00 | 27 | 1013.2 | |
| 20260505233904 | 80 | 0.0 | 0.0 | 0.00 | 0.00 | 0.00 | 27 | 1012.3 | |
| 20260505232904 | 81 | 0.0 | 0.0 | 0.00 | 0.00 | 0.00 | 27 | 1013.2 | |
| 20260505231905 | 81 | 0.0 | 0.0 | 0.00 | 0.00 | 0.00 | 26 | 1013.2 | |
| 20260505230904 | 81 | 0.0 | 0.0 | 0.00 | 0.00 | 0.00 | 27 | 1013.1 | |
| 20260505225904 | 81 | 0.0 | 0.0 | 0.00 | 0.00 | 0.00 | 26 | 1013.2 | |
| 20260505224903 | 81 | 0.0 | 0.0 | 0.00 | 0.00 | 0.00 | 28 | 1013.1 | |
| 20260505223904 | 81 | 0.0 | 0.0 | 0.00 | 0.00 | 0.00 | 27 | 1013.2 | |
| 20260505222905 | 81 | 0.0 | 0.0 | 0.00 | 0.00 | 0.00 | 28 | 1013.2 | |
| 20260505221905 | 81 | 0.0 | 0.0 | 0.00 | 0.00 | 0.00 | 28 | 1013.2 | |
| 20260505220904 | 82 | 0.0 | 0.0 | 0.00 | 0.00 | 0.00 | 27 | 1013.2 | |
| 20260505215904 | 82 | 0.0 | 0.0 | 0.00 | 0.00 | 0.00 | 27 | 1013.2 | |
| 20260505214904 | 82 | 0.0 | 0.0 | 0.00 | 0.00 | 0.00 | 27 | 1013.2 | |
| 20260505213904 | 82 | 0.0 | 0.0 | 0.00 | 0.00 | 0.00 | 27 | 1013.3 | |
| 20260505212904 | 82 | 0.0 | 0.0 | 0.00 | 0.00 | 0.00 | 28 | 1013.2 | |
| 20260505211904 | 81 | 0.0 | 0.0 | 0.00 | 0.00 | 0.00 | 27 | 1013.2 | |
| 20260505210904 | 81 | 0.0 | 0.0 | 0.00 | 0.00 | 0.00 | 30 | 1013.2 | |
| 20260505205904 | 80 | 0.0 | 0.0 | 0.00 | 0.00 | 0.00 | 29 | 1013.3 | |
| 20260505204904 | 80 | 0.0 | 0.0 | 0.00 | 0.00 | 0.00 | 29 | 1013.2 | |
| 20260505203904 | 80 | 0.0 | 0.0 | 0.00 | 0.00 | 0.00 | 30 | 1013.2 | |
| 20260505202904 | 80 | 0.0 | 0.0 | 0.00 | 0.00 | 0.00 | 30 | 1013.2 | |
| 20260505201904 | 80 | 0.0 | 0.0 | 0.00 | 0.00 | 0.00 | 30 | 1013.2 | |
| 20260505200904 | 80 | 0.0 | 0.0 | 0.00 | 0.00 | 0.00 | 31 | 1013.1 | |
| 20260505195905 | 79 | 0.0 | 0.0 | 0.00 | 0.00 | 0.00 | 31 | 1013.2 | |
| 20260505194904 | 79 | 0.0 | 0.0 | 0.00 | 0.00 | 0.00 | 33 | 1013.2 | |
| 20260505193904 | 79 | 0.0 | 0.0 | 0.00 | 0.00 | 0.00 | 33 | 1013.1 | |
| 20260505192904 | 79 | 0.0 | 0.0 | 0.00 | 0.00 | 0.00 | 33 | 1013.1 | |
| 20260505191905 | 79 | 0.0 | 0.0 | 0.00 | 0.00 | 0.00 | 33 | 1013.0 | |
| 20260505190904 | 80 | 0.0 | 0.0 | 0.00 | 0.00 | 0.00 | 33 | 1013.1 | |
| 20260505185904 | 80 | 0.0 | 0.0 | 0.00 | 0.00 | 0.00 | 33 | 1013.0 | |
| 20260505184906 | 80 | 0.0 | 0.0 | 0.00 | 0.00 | 0.00 | 33 | 1013.0 | |
| 20260505183904 | 80 | 0.0 | 0.0 | 0.00 | 0.00 | 0.00 | 32 | 1013.0 | |
| 20260505182905 | 80 | 0.0 | 0.0 | 0.00 | 0.00 | 0.00 | 31 | 1013.0 | |
| 20260505181909 | 80 | 0.0 | 0.0 | 0.00 | 0.00 | 0.00 | 31 | 1012.9 | |
| 20260505180905 | 81 | 0.0 | 0.0 | 0.00 | 0.00 | 0.00 | 30 | 1013.0 | |
| 20260505175904 | 81 | 0.0 | 0.0 | 0.00 | 0.00 | 0.00 | 29 | 1013.0 | |
| 20260505174904 | 81 | 0.0 | 0.0 | 0.00 | 0.00 | 0.00 | 29 | 1012.8 | |
| 20260505173904 | 81 | 0.0 | 0.0 | 0.00 | 0.00 | 0.00 | 29 | 1012.9 | |
| 20260505172904 | 81 | 0.0 | 0.0 | 0.00 | 0.00 | 0.00 | 29 | 1012.9 | |
| 20260505171904 | 81 | 0.0 | 0.0 | 0.00 | 0.00 | 0.00 | 29 | 1013.0 | |
| 20260505170904 | 80 | 0.0 | 0.0 | 0.00 | 0.00 | 0.00 | 29 | 1012.9 | |
| 20260505165904 | 79 | 0.0 | 0.0 | 0.00 | 0.00 | 0.00 | 29 | 1012.9 | |
| 20260505164905 | 79 | 0.0 | 0.0 | 0.00 | 0.00 | 0.00 | 28 | 1012.9 | |
| 20260505163904 | 79 | 0.0 | 0.0 | 0.00 | 0.00 | 0.00 | 28 | 1013.0 | |
| 20260505162904 | 79 | 0.0 | 0.0 | 0.00 | 0.00 | 0.00 | 27 | 1013.2 | |
| 20260505161904 | 80 | 0.0 | 0.0 | 0.00 | 0.00 | 0.00 | 27 | 1013.3 | |
| 20260505160904 | 80 | 0.0 | 0.0 | 0.00 | 0.00 | 0.00 | 26 | 1013.4 | |
| 20260505152905 | 80 | 0.0 | 0.0 | 0.00 | 0.00 | 0.00 | 26 | 1013.6 | |
| 20260505151905 | 81 | 0.0 | 0.0 | 0.00 | 0.00 | 0.00 | 24 | 1013.7 | |
| 20260505150904 | 81 | 0.0 | 0.0 | 0.00 | 0.00 | 0.00 | 24 | 1013.8 |